Nampa, ID

10:06 AM MDT on September 24, 2017 (GMT -0600)
Nampa

Weather History for KMAN - January, 2013

Change the Weather History Date:

Friday, January 25, 2013

  Actual Average (KBOI) Record (KBOI)
Temperature  
Mean Temperature 30 °F -  
Max Temperature 32 °F 39 °F 59 °F (1953)
Min Temperature 28 °F 25 °F -6 °F (1898)
Degree Days  
Heating Degree Days 35    
Moisture  
Dew Point 30 °F    
Average Humidity 100    
Maximum Humidity 100    
Minimum Humidity 93    
Precipitation  
Precipitation 0.08 in - - ()
Sea Level Pressure  
Sea Level Pressure 30.18 in    
Wind  
Wind Speed 1 mph (NW)    
Max Wind Speed 9 mph    
Max Gust Speed -    
Visibility 1 miles    
Events      
Averages and records for this station are not official NWS values.
T = Trace of Precipitation, MM = Missing Value Source: NWS Daily Summary

Daily Weather History Graph

Daily Weather History Graph

Search for Another Location

Airport or City:

Trip Planner

Search our weather history database for the weather conditions in past years. The results will help you decide how hot, cold, wet, or windy it might be!

Date:

Astronomy

Jan. 25, 2013 Rise Set
Actual Time 8:09 AM MST 5:48 PM MST
Civil Twilight 7:38 AM MST 6:19 PM MST
Nautical Twilight 7:03 AM MST 6:54 PM MST
Astronomical Twilight 6:29 AM MST 7:28 PM MST
Moon 4:50 PM MST (1/25) 6:51 AM MST (1/25)
Length of Visible Light 10h 41m
Length of Day
9h 39m
Waxing Gibbous, 98% of the Moon is Illuminated
Jan 25
Waxing Gibbous
Jan 26
Full
Feb 3
Last Quarter
Feb 10
New
Feb 17
First Quarter

Hourly Weather History & Observations

Time (MST) Temp. Windchill Dew Point Humidity Pressure Visibility Wind Dir Wind Speed Gust Speed Precip Events Conditions
12:15 AM 28.4 °F - 28.4 °F 100% 30.30 in 1.5 mi Calm Calm - N/A   Overcast
12:35 AM 28.4 °F - 28.4 °F 100% 30.29 in 1.5 mi Calm Calm - N/A   Overcast
12:55 AM 28.4 °F 24.6 °F 28.4 °F 100% 30.30 in 1.5 mi NNW 3.5 mph - N/A   Overcast
1:15 AM 28.4 °F - 28.4 °F 100% 30.29 in 1.5 mi Calm Calm - N/A   Overcast
1:35 AM 28.4 °F - 28.4 °F 100% 30.29 in 1.5 mi Calm Calm - N/A   Overcast
1:55 AM 28.4 °F - 28.4 °F 100% 30.29 in 1.8 mi Calm Calm - N/A   Overcast
2:15 AM 28.4 °F - 28.4 °F 100% 30.29 in 1.8 mi Calm Calm - N/A   Overcast
2:55 AM 28.4 °F 24.6 °F 28.4 °F 100% 30.29 in 1.5 mi North 3.5 mph - N/A   Overcast
3:15 AM 28.4 °F 24.6 °F 28.4 °F 100% 30.28 in 1.5 mi NNW 3.5 mph - N/A   Overcast
3:55 AM 28.4 °F 24.6 °F 28.4 °F 100% 30.28 in 1.5 mi WNW 3.5 mph - N/A   Overcast
4:15 AM 28.4 °F 24.6 °F 28.4 °F 100% 30.27 in 1.5 mi West 3.5 mph - N/A   Overcast
4:35 AM 28.4 °F - 28.4 °F 100% 30.26 in 1.5 mi Calm Calm - N/A   Overcast
4:55 AM 28.4 °F 24.6 °F 28.4 °F 100% 30.27 in 1.2 mi WNW 3.5 mph - N/A   Overcast
5:15 AM 28.4 °F - 28.4 °F 100% 30.26 in 1.5 mi Calm Calm - N/A   Overcast
5:35 AM 28.4 °F - 28.4 °F 100% 30.26 in 1.5 mi Calm Calm - N/A   Overcast
5:55 AM 28.4 °F - 28.4 °F 100% 30.27 in 1.5 mi Calm Calm - N/A   Overcast
6:15 AM 28.4 °F - 28.4 °F 100% 30.26 in 1.2 mi Calm Calm - N/A   Overcast
6:35 AM 28.4 °F - 28.4 °F 100% 30.26 in 1.2 mi Calm Calm - N/A   Overcast
6:55 AM 28.4 °F - 28.4 °F 100% 30.27 in 1.2 mi Calm Calm - N/A   Overcast
7:15 AM 28.4 °F - 28.4 °F 100% 30.26 in 1.2 mi Calm Calm - N/A   Overcast
7:55 AM 28.4 °F 24.6 °F 28.4 °F 100% 30.26 in 0.8 mi WNW 3.5 mph - N/A   Overcast
8:15 AM 28.4 °F 24.6 °F 28.4 °F 100% 30.26 in 0.8 mi WSW 3.5 mph - N/A   Overcast
8:35 AM 28.4 °F - 28.4 °F 100% 30.26 in 1.0 mi Calm Calm - N/A   Overcast
8:55 AM 28.4 °F - 28.4 °F 100% 30.25 in 1.0 mi Calm Calm - N/A   Overcast
9:15 AM 28.4 °F - 28.4 °F 100% 30.25 in 1.0 mi Calm Calm - N/A   Overcast
9:35 AM 28.4 °F - 28.4 °F 100% 30.25 in 1.2 mi Calm Calm - N/A   Overcast
9:55 AM 28.4 °F - 28.4 °F 100% 30.24 in 1.2 mi Calm Calm - N/A   Overcast
10:15 AM 28.4 °F - 28.4 °F 100% 30.24 in 1.2 mi Calm Calm - N/A   Overcast
10:55 AM 30.2 °F - 28.4 °F 93% 30.24 in 1.2 mi Calm Calm - N/A   Overcast
11:15 AM 32.0 °F - 30.2 °F 93% 30.23 in 1.2 mi Calm Calm - N/A   Overcast
11:35 AM 32.0 °F - 30.2 °F 93% 30.23 in 1.2 mi Calm Calm - N/A   Overcast
11:55 AM 32.0 °F - 30.2 °F 93% 30.21 in 1.2 mi Calm Calm - N/A   Overcast
12:15 PM 32.0 °F - 32.0 °F 100% 30.20 in 1.2 mi Calm Calm - N/A   Overcast
12:35 PM 32.0 °F - 32.0 °F 100% 30.19 in 1.0 mi Calm Calm - N/A   Overcast
12:55 PM 32.0 °F 28.7 °F 32.0 °F 100% 30.18 in 1.2 mi WNW 3.5 mph - N/A   Overcast
1:15 PM 32.0 °F 28.7 °F 32.0 °F 100% 30.16 in 1.2 mi North 3.5 mph - N/A   Overcast
1:35 PM 32.0 °F 28.7 °F 32.0 °F 100% 30.16 in 1.2 mi NNW 3.5 mph - N/A   Overcast
1:55 PM 32.0 °F 28.7 °F 32.0 °F 100% 30.15 in 1.0 mi West 3.5 mph - N/A   Overcast
2:15 PM 32.0 °F - 32.0 °F 100% 30.14 in 1.0 mi Calm Calm - N/A   Overcast
2:35 PM 32.0 °F 28.7 °F 32.0 °F 100% 30.14 in 1.0 mi WNW 3.5 mph - N/A   Overcast
2:55 PM 32.0 °F - 32.0 °F 100% 30.12 in 1.0 mi Calm Calm - N/A   Overcast
3:15 PM 32.0 °F 27.5 °F 32.0 °F 100% 30.12 in 1.2 mi WNW 4.6 mph - N/A   Overcast
3:35 PM 32.0 °F - 32.0 °F 100% 30.12 in 1.5 mi Calm Calm - N/A   Overcast
3:55 PM 32.0 °F - 32.0 °F 100% 30.11 in 1.5 mi Calm Calm - N/A   Overcast
4:15 PM 32.0 °F 27.5 °F 32.0 °F 100% 30.11 in 1.5 mi WNW 4.6 mph - N/A   Overcast
4:35 PM 32.0 °F - 32.0 °F 100% 30.11 in 1.5 mi Calm Calm - N/A   Overcast
4:55 PM 32.0 °F 28.7 °F 32.0 °F 100% 30.10 in 1.5 mi North 3.5 mph - N/A   Overcast
5:15 PM 32.0 °F 28.7 °F 32.0 °F 100% 30.09 in 1.2 mi ENE 3.5 mph - N/A   Overcast
5:35 PM 32.0 °F - 32.0 °F 100% 30.09 in 1.2 mi Calm Calm - N/A   Overcast
5:55 PM 32.0 °F 26.4 °F 32.0 °F 100% 30.09 in 1.2 mi WNW 5.8 mph - N/A   Overcast
6:15 PM 32.0 °F 25.6 °F 32.0 °F 100% 30.10 in 1.8 mi NW 6.9 mph - N/A   Overcast
6:35 PM 32.0 °F 26.4 °F 32.0 °F 100% 30.10 in 1.8 mi WNW 5.8 mph - N/A   Overcast
6:55 PM 32.0 °F 28.7 °F 32.0 °F 100% 30.11 in 1.2 mi WNW 3.5 mph - 0.01 in   Overcast
7:15 PM 32.0 °F - 32.0 °F 100% 30.10 in 1.2 mi Calm Calm - 0.01 in   Overcast
7:35 PM 32.0 °F - 32.0 °F 100% 30.10 in 1.2 mi Calm Calm - 0.02 in   Overcast
7:55 PM 32.0 °F - 32.0 °F 100% 30.10 in 1.0 mi Calm Calm - 0.04 in   Overcast
8:15 PM 32.0 °F - 32.0 °F 100% 30.09 in 1.0 mi Calm Calm - 0.01 in   Overcast
8:35 PM 32.0 °F - 32.0 °F 100% 30.09 in 1.0 mi Calm Calm - 0.02 in   Overcast
8:55 PM 32.0 °F 26.4 °F 32.0 °F 100% 30.06 in 0.8 mi ESE 5.8 mph - 0.03 in   Overcast
9:15 PM 32.0 °F 27.5 °F 32.0 °F 100% 30.05 in 0.8 mi SE 4.6 mph - N/A   Overcast
9:55 PM 32.0 °F 26.4 °F 32.0 °F 100% 30.06 in 1.0 mi SW 5.8 mph - N/A   Overcast
10:15 PM 32.0 °F 28.7 °F 32.0 °F 100% 30.06 in 1.0 mi West 3.5 mph - N/A   Overcast
10:35 PM 32.0 °F 24.2 °F 32.0 °F 100% 30.07 in 1.0 mi NW 9.2 mph - N/A   Overcast
10:55 PM 32.0 °F 27.5 °F 32.0 °F 100% 30.06 in 1.0 mi NE 4.6 mph - N/A   Overcast
11:15 PM 32.0 °F - 32.0 °F 100% 30.06 in 0.8 mi Calm Calm - N/A   Overcast
11:35 PM 32.0 °F 27.5 °F 32.0 °F 100% 30.06 in 1.0 mi NE 4.6 mph - N/A   Overcast
11:55 PM 32.0 °F 28.7 °F 32.0 °F 100% 30.05 in 0.8 mi ENE 3.5 mph - N/A   Overcast